Location: Bouchavesnes-Bergen
(49.9859°N, 2.9203°E)
Time: 03:07:44
(UTC+00:00)

Envisat - Pass Details

Date: 06 February 2023
Orbit: 763 x 765 km, 98.2° (Epoch: 30 March)

Event Time Altitude Azimuth Distance (km) Brightness Sun altitude
Rises 05:28:29 0° 5° (N) 3,247 6.3 -17.4°
Reaches altitude 10° 05:31:14 10° 350° (N) 2,315 5.3 -16.9°
Enters shadow 05:34:48 22° 306° (NW) 1,631 4.2 -16.3°
